| time (UTC) | temp C | wind direction | speed KPH | gust KPH | rain 1hr cm | rain 24hr cm | rain mn cm | humidity % | barometer mb |
| 20260902131236 | 27 | 110 | 1.6 | 6.4 | 0.00 | 0.00 | 0.00 | 82 | 1021.1 |
| 20260902130736 | 26 | 147 | 3.2 | 6.4 | 0.00 | 0.00 | 0.00 | 84 | 1020.7 |
| 20260902130236 | 25 | 111 | 1.6 | 6.4 | 0.00 | 0.00 | 0.00 | 86 | 1020.7 |
| 20260902125736 | 25 | 93 | 3.2 | 6.4 | 0.00 | 0.00 | 0.00 | 87 | 1020.7 |
| 20260902125236 | 24 | 89 | 1.6 | 6.4 | 0.00 | 0.00 | 0.00 | 89 | 1020.7 |
| 20260902124736 | 23 | 109 | 1.6 | 6.4 | 0.00 | 0.00 | 0.00 | 90 | 1020.7 |
| 20260902124236 | 23 | 116 | 4.8 | 8.0 | 0.00 | 0.00 | 0.00 | 91 | 1020.7 |
| 20260902123736 | 23 | 125 | 4.8 | 8.0 | 0.00 | 0.00 | 0.00 | 92 | 1020.7 |
| 20260902123236 | 22 | 107 | 4.8 | 9.7 | 0.00 | 0.00 | 0.00 | 91 | 1020.7 |
| 20260902122736 | 22 | 80 | 3.2 | 9.7 | 0.00 | 0.00 | 0.00 | 94 | 1020.7 |
| 20260902122235 | 21 | 80 | 1.6 | 9.7 | 0.00 | 0.00 | 0.00 | 96 | 1020.7 |
| 20260902121736 | 21 | 79 | 4.8 | 8.0 | 0.00 | 0.00 | 0.00 | 97 | 1020.4 |
| 20260902121236 | 21 | 67 | 3.2 | 8.0 | 0.00 | 0.00 | 0.00 | 97 | 1020.7 |
| 20260902120735 | 21 | 91 | 3.2 | 8.0 | 0.00 | 0.00 | 0.00 | 97 | 1020.7 |
| 20260902120236 | 21 | 112 | 6.4 | 8.0 | 0.00 | 0.00 | 0.00 | 97 | 1020.4 |
| 20260902115736 | 21 | 119 | 3.2 | 6.4 | 0.00 | 0.00 | 0.00 | 97 | 1020.4 |
| 20260902115236 | 21 | 107 | 3.2 | 6.4 | 0.00 | 0.00 | 0.00 | 97 | 1020.4 |
| 20260902114736 | 21 | 104 | 4.8 | 6.4 | 0.00 | 0.00 | 0.00 | 97 | 1020.4 |
| 20260902114236 | 21 | 130 | 3.2 | 6.4 | 0.00 | 0.00 | 0.00 | 97 | 1020.4 |
| 20260902113736 | 21 | 101 | 3.2 | 8.0 | 0.00 | 0.00 | 0.00 | 97 | 1020.4 |
| 20260902113236 | 21 | 91 | 3.2 | 8.0 | 0.00 | 0.00 | 0.00 | 97 | 1020.4 |
| 20260902112736 | 21 | 85 | 4.8 | 8.0 | 0.00 | 0.00 | 0.00 | 97 | 1020.4 |
| 20260902112236 | 21 | 112 | 3.2 | 8.0 | 0.00 | 0.00 | 0.00 | 97 | 1020.4 |
| 20260902111736 | 21 | 100 | 3.2 | 8.0 | 0.00 | 0.00 | 0.00 | 97 | 1020.4 |
| 20260902111236 | 21 | 101 | 3.2 | 8.0 | 0.00 | 0.00 | 0.00 | 97 | 1020.0 |
| 20260902110736 | 21 | 108 | 4.8 | 8.0 | 0.00 | 0.00 | 0.00 | 97 | 1020.0 |
| 20260902110236 | 21 | 122 | 3.2 | 8.0 | 0.00 | 0.00 | 0.00 | 97 | 1020.0 |
| 20260902105735 | 21 | 85 | 3.2 | 8.0 | 0.00 | 0.00 | 0.00 | 97 | 1020.0 |
| 20260902105236 | 21 | 32 | 4.8 | 8.0 | 0.00 | 0.00 | 0.00 | 97 | 1019.7 |
| 20260902104737 | 21 | 114 | 3.2 | 8.0 | 0.00 | 0.00 | 0.00 | 97 | 1019.7 |
| 20260902104235 | 21 | 81 | 1.6 | 8.0 | 0.00 | 0.00 | 0.00 | 98 | 1019.7 |
| 20260902103736 | 21 | 196 | 3.2 | 8.0 | 0.00 | 0.00 | 0.00 | 98 | 1019.7 |
| 20260902103236 | 21 | 88 | 3.2 | 8.0 | 0.00 | 0.00 | 0.00 | 98 | 1019.7 |
| 20260902102736 | 21 | 78 | 3.2 | 8.0 | 0.00 | 0.00 | 0.00 | 98 | 1019.7 |
| 20260902102235 | 21 | 124 | 6.4 | 8.0 | 0.00 | 0.00 | 0.00 | 97 | 1019.7 |
| 20260902101737 | 21 | 95 | 3.2 | 8.0 | 0.00 | 0.00 | 0.00 | 97 | 1019.3 |
| 20260902101236 | 21 | 119 | 4.8 | 9.7 | 0.00 | 0.00 | 0.00 | 97 | 1019.7 |
| 20260902100736 | 21 | 97 | 3.2 | 9.7 | 0.00 | 0.00 | 0.00 | 97 | 1019.3 |
| 20260902100235 | 21 | 71 | 9.7 | 9.7 | 0.00 | 0.00 | 0.00 | 97 | 1019.7 |
| 20260902095736 | 21 | 117 | 3.2 | 8.0 | 0.00 | 0.00 | 0.00 | 97 | 1019.3 |
| 20260902095235 | 21 | 122 | 1.6 | 9.7 | 0.00 | 0.00 | 0.00 | 97 | 1019.3 |
| 20260902094736 | 21 | 118 | 3.2 | 9.7 | 0.00 | 0.00 | 0.00 | 97 | 1019.3 |
| 20260902094236 | 21 | 91 | 3.2 | 4.8 | 0.00 | 0.00 | 0.00 | 97 | 1019.3 |
| 20260902093736 | 21 | 102 | 3.2 | 4.8 | 0.00 | 0.00 | 0.00 | 97 | 1019.3 |
| 20260902093235 | 21 | 98 | 3.2 | 4.8 | 0.00 | 0.00 | 0.00 | 97 | 1019.3 |
| 20260902092736 | 21 | 100 | 3.2 | 3.2 | 0.00 | 0.00 | 0.00 | 97 | 1019.3 |
| 20260902092236 | 21 | 98 | 3.2 | 4.8 | 0.00 | 0.00 | 0.00 | 97 | 1019.3 |
| 20260902091735 | 21 | 104 | 3.2 | 4.8 | 0.00 | 0.00 | 0.00 | 97 | 1019.0 |
| 20260902091235 | 21 | 101 | 3.2 | 4.8 | 0.00 | 0.00 | 0.00 | 96 | 1019.0 |
| 20260902090735 | 21 | 106 | 3.2 | 3.2 | 0.00 | 0.00 | 0.00 | 97 | 1019.0 |
| 20260902090235 | 21 | 89 | 1.6 | 4.8 | 0.00 | 0.00 | 0.00 | 97 | 1019.0 |
| 20260902085736 | 21 | 100 | 3.2 | 4.8 | 0.00 | 0.00 | 0.00 | 97 | 1019.0 |
| 20260902085236 | 21 | 112 | 3.2 | 4.8 | 0.00 | 0.00 | 0.00 | 97 | 1019.0 |
| 20260902084736 | 21 | 99 | 3.2 | 4.8 | 0.00 | 0.00 | 0.00 | 97 | 1019.0 |
| 20260902084235 | 21 | 93 | 3.2 | 4.8 | 0.00 | 0.00 | 0.00 | 97 | 1018.6 |
| 20260902083735 | 21 | 109 | 3.2 | 4.8 | 0.00 | 0.00 | 0.00 | 97 | 1018.6 |
| 20260902083236 | 21 | 113 | 3.2 | 4.8 | 0.00 | 0.00 | 0.00 | 97 | 1019.0 |
| 20260902082736 | 21 | 109 | 3.2 | 4.8 | 0.00 | 0.00 | 0.00 | 96 | 1019.0 |
| 20260902082235 | 21 | 110 | 3.2 | 4.8 | 0.00 | 0.00 | 0.00 | 97 | 1019.0 |
| 20260902081736 | 21 | 115 | 1.6 | 4.8 | 0.00 | 0.00 | 0.00 | 97 | 1019.0 |
| 20260902081235 | 21 | 99 | 3.2 | 3.2 | 0.00 | 0.00 | 0.00 | 97 | 1019.0 |
| 20260902080735 | 21 | 102 | 3.2 | 4.8 | 0.00 | 0.00 | 0.00 | 97 | 1018.6 |
| 20260902080235 | 21 | 97 | 3.2 | 4.8 | 0.00 | 0.00 | 0.00 | 96 | 1018.6 |
| 20260902075736 | 21 | 97 | 3.2 | 4.8 | 0.00 | 0.00 | 0.00 | 96 | 1019.0 |
| 20260902075236 | 21 | 105 | 3.2 | 3.2 | 0.00 | 0.00 | 0.00 | 96 | 1018.6 |
| 20260902074736 | 21 | 96 | 1.6 | 4.8 | 0.00 | 0.00 | 0.00 | 96 | 1018.6 |
| 20260902074236 | 21 | 99 | 3.2 | 4.8 | 0.00 | 0.00 | 0.00 | 96 | 1018.6 |
| 20260902073736 | 21 | 97 | 3.2 | 3.2 | 0.00 | 0.00 | 0.00 | 96 | 1018.6 |
| 20260902073236 | 21 | 92 | 1.6 | 3.2 | 0.00 | 0.00 | 0.00 | 95 | 1018.6 |
| 20260902072735 | 21 | 91 | 1.6 | 3.2 | 0.00 | 0.00 | 0.00 | 95 | 1019.0 |
| 20260902072236 | 21 | 102 | 3.2 | 3.2 | 0.00 | 0.00 | 0.00 | 95 | 1018.6 |
| 20260902071736 | 21 | 101 | 3.2 | 3.2 | 0.00 | 0.00 | 0.00 | 95 | 1018.6 |
| 20260902071236 | 22 | 111 | 3.2 | 3.2 | 0.00 | 0.00 | 0.00 | 94 | 1018.6 |
| 20260902070736 | 22 | 107 | 3.2 | 3.2 | 0.00 | 0.00 | 0.00 | 94 | 1018.6 |
| 20260902070236 | 22 | 122 | 1.6 | 3.2 | 0.00 | 0.00 | 0.00 | 94 | 1018.6 |
| 20260902065735 | 22 | 110 | 0.0 | 3.2 | 0.00 | 0.00 | 0.00 | 93 | 1018.6 |
| 20260902065236 | 22 | 115 | 3.2 | 4.8 | 0.00 | 0.00 | 0.00 | 93 | 1018.6 |
| 20260902064735 | 22 | 130 | 0.0 | 4.8 | 0.00 | 0.00 | 0.00 | 94 | 1018.6 |
| 20260902064236 | 22 | 140 | 3.2 | 3.2 | 0.00 | 0.00 | 0.00 | 94 | 1018.6 |
| 20260902063736 | 22 | 135 | 1.6 | 3.2 | 0.00 | 0.00 | 0.00 | 93 | 1019.0 |
| 20260902063235 | 22 | 106 | 3.2 | 3.2 | 0.00 | 0.00 | 0.00 | 93 | 1018.6 |
| 20260902062735 | 22 | 102 | 3.2 | 3.2 | 0.00 | 0.00 | 0.00 | 92 | 1019.0 |
| 20260902062236 | 22 | 95 | 1.6 | 3.2 | 0.00 | 0.00 | 0.00 | 94 | 1018.6 |
| 20260902061736 | 22 | 118 | 1.6 | 3.2 | 0.00 | 0.00 | 0.00 | 93 | 1018.6 |
| 20260902061236 | 22 | 107 | 3.2 | 3.2 | 0.00 | 0.00 | 0.00 | 92 | 1019.0 |
| 20260902060736 | 22 | 112 | 3.2 | 4.8 | 0.00 | 0.00 | 0.00 | 93 | 1019.0 |
| 20260902060236 | 22 | 102 | 3.2 | 4.8 | 0.00 | 0.00 | 0.00 | 93 | 1019.0 |
| 20260902055736 | 22 | 130 | 1.6 | 4.8 | 0.00 | 0.00 | 0.00 | 92 | 1019.0 |
| 20260902055235 | 22 | 111 | 4.8 | 4.8 | 0.00 | 0.00 | 0.00 | 94 | 1019.0 |
| 20260902054736 | 22 | 107 | 3.2 | 4.8 | 0.00 | 0.00 | 0.00 | 95 | 1019.0 |
| 20260902054235 | 22 | 109 | 3.2 | 4.8 | 0.00 | 0.00 | 0.00 | 95 | 1019.3 |
| 20260902053736 | 22 | 107 | 3.2 | 4.8 | 0.00 | 0.00 | 0.00 | 95 | 1019.0 |
| 20260902053236 | 22 | 112 | 3.2 | 4.8 | 0.00 | 0.00 | 0.00 | 95 | 1019.3 |
| 20260902052735 | 22 | 106 | 3.2 | 4.8 | 0.00 | 0.00 | 0.00 | 95 | 1019.0 |
| 20260902052236 | 22 | 108 | 3.2 | 4.8 | 0.00 | 0.00 | 0.00 | 95 | 1019.0 |
| 20260902051736 | 22 | 105 | 3.2 | 4.8 | 0.00 | 0.00 | 0.00 | 95 | 1019.0 |
| 20260902051236 | 22 | 107 | 3.2 | 4.8 | 0.00 | 0.00 | 0.00 | 95 | 1019.3 |
| 20260902050736 | 22 | 105 | 3.2 | 4.8 | 0.00 | 0.00 | 0.00 | 95 | 1019.3 |
| 20260902050236 | 22 | 103 | 4.8 | 4.8 | 0.00 | 0.00 | 0.00 | 95 | 1019.3 |
| 20260902045735 | 22 | 99 | 3.2 | 4.8 | 0.00 | 0.00 | 0.00 | 95 | 1019.0 |
| 20260902045237 | 22 | 102 | 3.2 | 4.8 | 0.00 | 0.00 | 0.00 | 95 | 1019.0 |
| 20260902044736 | 22 | 106 | 3.2 | 3.2 | 0.00 | 0.00 | 0.00 | 95 | 1019.0 |
| 20260902044236 | 22 | 113 | 1.6 | 3.2 | 0.00 | 0.00 | 0.00 | 95 | 1019.0 |
| 20260902043735 | 22 | 103 | 1.6 | 4.8 | 0.00 | 0.00 | 0.00 | 95 | 1019.0 |
| 20260902043235 | 22 | 94 | 3.2 | 4.8 | 0.00 | 0.00 | 0.00 | 95 | 1019.3 |
| 20260902042736 | 23 | 125 | 3.2 | 4.8 | 0.00 | 0.00 | 0.00 | 95 | 1019.3 |
| 20260902042236 | 23 | 103 | 3.2 | 4.8 | 0.00 | 0.00 | 0.00 | 95 | 1019.0 |
| 20260902041735 | 23 | 102 | 3.2 | 4.8 | 0.00 | 0.00 | 0.00 | 95 | 1019.3 |
| 20260902041235 | 23 | 114 | 3.2 | 4.8 | 0.00 | 0.00 | 0.00 | 95 | 1019.3 |
| 20260902040736 | 23 | 93 | 3.2 | 4.8 | 0.00 | 0.00 | 0.00 | 95 | 1019.3 |
| 20260902040236 | 23 | 118 | 3.2 | 4.8 | 0.00 | 0.00 | 0.00 | 95 | 1019.3 |
| 20260902035735 | 23 | 101 | 3.2 | 3.2 | 0.00 | 0.00 | 0.00 | 96 | 1019.3 |
| 20260902035234 | 23 | 117 | 3.2 | 3.2 | 0.00 | 0.00 | 0.00 | 96 | 1019.3 |
| 20260902034735 | 23 | 115 | 3.2 | 3.2 | 0.00 | 0.00 | 0.00 | 96 | 1019.3 |
| 20260902034236 | 23 | 99 | 1.6 | 3.2 | 0.00 | 0.00 | 0.00 | 96 | 1019.3 |
| 20260902033736 | 23 | 104 | 3.2 | 3.2 | 0.00 | 0.00 | 0.00 | 96 | 1019.3 |
| 20260902033235 | 23 | 106 | 1.6 | 3.2 | 0.00 | 0.00 | 0.00 | 96 | 1019.3 |
| 20260902032735 | 23 | 129 | 1.6 | 3.2 | 0.00 | 0.00 | 0.00 | 95 | 1019.3 |
| 20260902032236 | 23 | 105 | 3.2 | 3.2 | 0.00 | 0.00 | 0.00 | 95 | 1019.3 |
| 20260902031735 | 23 | 84 | 1.6 | 3.2 | 0.00 | 0.00 | 0.00 | 95 | 1019.3 |
| 20260902031236 | 23 | 95 | 3.2 | 3.2 | 0.00 | 0.00 | 0.00 | 95 | 1019.3 |
| 20260902030736 | 23 | 112 | 3.2 | 3.2 | 0.00 | 0.00 | 0.00 | 95 | 1019.3 |
| 20260902030235 | 23 | 111 | 1.6 | 3.2 | 0.00 | 0.00 | 0.00 | 94 | 1019.3 |
| 20260902025735 | 23 | 115 | 3.2 | 3.2 | 0.00 | 0.00 | 0.00 | 94 | 1019.3 |
| 20260902025236 | 23 | 86 | 1.6 | 3.2 | 0.00 | 0.00 | 0.00 | 93 | 1019.3 |
| 20260902024736 | 23 | 87 | 3.2 | 3.2 | 0.00 | 0.00 | 0.00 | 93 | 1019.3 |
| 20260902024236 | 24 | 101 | 3.2 | 3.2 | 0.00 | 0.00 | 0.00 | 92 | 1019.3 |
| 20260902023736 | 24 | 114 | 3.2 | 3.2 | 0.00 | 0.00 | 0.00 | 91 | 1019.3 |
| 20260902023235 | 24 | 97 | 3.2 | 3.2 | 0.00 | 0.00 | 0.00 | 92 | 1019.3 |
| 20260902022735 | 24 | 97 | 1.6 | 3.2 | 0.00 | 0.00 | 0.00 | 91 | 1019.3 |
| 20260902022236 | 24 | 107 | 1.6 | 3.2 | 0.00 | 0.00 | 0.00 | 92 | 1019.3 |
| 20260902021736 | 24 | 89 | 1.6 | 3.2 | 0.00 | 0.00 | 0.00 | 93 | 1019.3 |
| 20260902021236 | 24 | 106 | 1.6 | 3.2 | 0.00 | 0.00 | 0.00 | 94 | 1019.3 |
| 20260902020735 | 24 | 101 | 3.2 | 3.2 | 0.00 | 0.00 | 0.00 | 93 | 1019.3 |
| 20260902020236 | 25 | 107 | 3.2 | 3.2 | 0.00 | 0.00 | 0.00 | 93 | 1019.3 |
| 20260902015736 | 25 | 91 | 1.6 | 3.2 | 0.00 | 0.00 | 0.00 | 92 | 1019.3 |
| 20260902015235 | 25 | 101 | 3.2 | 3.2 | 0.00 | 0.00 | 0.00 | 91 | 1019.0 |
| 20260902014736 | 25 | 100 | 3.2 | 3.2 | 0.00 | 0.00 | 0.00 | 91 | 1019.0 |
| 20260902014235 | 25 | 94 | 1.6 | 3.2 | 0.00 | 0.00 | 0.00 | 90 | 1019.0 |
| 20260902013735 | 25 | 77 | 1.6 | 3.2 | 0.00 | 0.00 | 0.00 | 88 | 1019.0 |
| 20260902013236 | 25 | 101 | 0.0 | 3.2 | 0.00 | 0.00 | 0.00 | 90 | 1019.0 |
| 20260902012735 | 25 | 113 | 3.2 | 3.2 | 0.00 | 0.00 | 0.00 | 90 | 1018.6 |
| 20260902012236 | 25 | 100 | 1.6 | 3.2 | 0.00 | 0.00 | 0.00 | 89 | 1019.0 |
| 20260902011736 | 25 | 95 | 1.6 | 3.2 | 0.00 | 0.00 | 0.00 | 88 | 1018.6 |
| 20260902011235 | 25 | 99 | 1.6 | 3.2 | 0.00 | 0.00 | 0.00 | 88 | 1018.6 |
| 20260902010736 | 25 | 97 | 1.6 | 3.2 | 0.00 | 0.00 | 0.00 | 87 | 1018.6 |
| 20260902010235 | 25 | 95 | 3.2 | 3.2 | 0.00 | 0.00 | 0.00 | 86 | 1018.6 |
| 20260902005735 | 26 | 106 | 1.6 | 3.2 | 0.00 | 0.00 | 0.00 | 85 | 1018.6 |
| 20260902005235 | 26 | 130 | 0.0 | 3.2 | 0.00 | 0.00 | 0.00 | 84 | 1018.3 |
| 20260902004735 | 26 | 79 | 0.0 | 3.2 | 0.00 | 0.00 | 0.00 | 84 | 1018.3 |
| 20260902004235 | 26 | 54 | 0.0 | 3.2 | 0.00 | 0.00 | 0.00 | 82 | 1018.3 |
| 20260902003735 | 26 | 104 | 0.0 | 3.2 | 0.00 | 0.00 | 0.00 | 81 | 1018.3 |
| 20260902003235 | 27 | 100 | 1.6 | 3.2 | 0.00 | 0.00 | 0.00 | 80 | 1018.3 |
| 20260902002736 | 27 | 105 | 1.6 | 3.2 | 0.00 | 0.00 | 0.00 | 78 | 1018.3 |
| 20260902002235 | 27 | 104 | 0.0 | 3.2 | 0.00 | 0.00 | 0.00 | 77 | 1018.3 |
| 20260902001735 | 27 | 104 | 0.0 | 3.2 | 0.00 | 0.00 | 0.00 | 78 | 1018.3 |
| 20260902001235 | 28 | 108 | 1.6 | 3.2 | 0.00 | 0.00 | 0.00 | 75 | 1018.3 |
| 20260902000736 | 28 | 89 | 1.6 | 3.2 | 0.00 | 0.00 | 0.00 | 75 | 1017.9 |
| 20260902000235 | 29 | 89 | 1.6 | 3.2 | 0.00 | 0.00 | 0.00 | 72 | 1018.3 |
| 20260901235735 | 29 | 117 | 0.0 | 1.6 | 0.00 | 0.00 | 0.00 | 69 | 1018.3 |
| 20260901235235 | 30 | 104 | 0.0 | 1.6 | 0.00 | 0.00 | 0.00 | 66 | 1018.3 |
| 20260901234735 | 31 | 44 | 0.0 | 1.6 | 0.00 | 0.00 | 0.00 | 63 | 1018.3 |
| 20260901234235 | 31 | 50 | 0.0 | 0.0 | 0.00 | 0.00 | 0.00 | 60 | 1018.3 |
| 20260901233736 | 32 | 75 | 0.0 | 0.0 | 0.00 | 0.00 | 0.00 | 59 | 1017.9 |
| 20260901233235 | 32 | 75 | 0.0 | 1.6 | 0.00 | 0.00 | 0.00 | 60 | 1018.3 |
| 20260901232735 | 32 | 106 | 0.0 | 3.2 | 0.00 | 0.00 | 0.00 | 59 | 1018.3 |
| 20260901232236 | 33 | 84 | 1.6 | 3.2 | 0.00 | 0.00 | 0.00 | 56 | 1017.9 |
| 20260901231736 | 33 | 44 | 0.0 | 0.0 | 0.00 | 0.00 | 0.00 | 57 | 1017.9 |
| 20260901231235 | 33 | 44 | 0.0 | 1.6 | 0.00 | 0.00 | 0.00 | 56 | 1018.3 |
| 20260901230736 | 33 | 50 | 0.0 | 3.2 | 0.00 | 0.00 | 0.00 | 58 | 1017.9 |
| 20260901230236 | 33 | 112 | 1.6 | 3.2 | 0.00 | 0.00 | 0.00 | 57 | 1017.9 |
| 20260901225735 | 33 | 116 | 1.6 | 3.2 | 0.00 | 0.00 | 0.00 | 55 | 1018.3 |
| 20260901225235 | 33 | 83 | 0.0 | 3.2 | 0.00 | 0.00 | 0.00 | 57 | 1017.9 |
| 20260901224735 | 34 | 119 | 3.2 | 4.8 | 0.00 | 0.00 | 0.00 | 55 | 1018.3 |
| 20260901224235 | 33 | 73 | 1.6 | 4.8 | 0.00 | 0.00 | 0.00 | 55 | 1018.3 |
| 20260901223735 | 33 | 135 | 0.0 | 3.2 | 0.00 | 0.00 | 0.00 | 56 | 1017.9 |
| 20260901223236 | 33 | 245 | 1.6 | 3.2 | 0.00 | 0.00 | 0.00 | 57 | 1017.9 |
| 20260901222735 | 33 | 75 | 0.0 | 4.8 | 0.00 | 0.00 | 0.00 | 56 | 1018.3 |
| 20260901222235 | 33 | 120 | 3.2 | 4.8 | 0.00 | 0.00 | 0.00 | 52 | 1018.3 |
| 20260901221736 | 33 | 106 | 3.2 | 8.0 | 0.00 | 0.00 | 0.00 | 50 | 1017.9 |
| 20260901221235 | 33 | 74 | 0.0 | 8.0 | 0.00 | 0.00 | 0.00 | 52 | 1017.9 |
| 20260901220735 | 33 | 217 | 0.0 | 3.2 | 0.00 | 0.00 | 0.00 | 52 | 1017.9 |
| 20260901220235 | 33 | 9 | 0.0 | 3.2 | 0.00 | 0.00 | 0.00 | 51 | 1017.9 |
| 20260901215735 | 33 | 55 | 0.0 | 4.8 | 0.00 | 0.00 | 0.00 | 57 | 1017.9 |
| 20260901215235 | 33 | 117 | 0.0 | 4.8 | 0.00 | 0.00 | 0.00 | 52 | 1017.9 |
| 20260901214736 | 32 | 43 | 3.2 | 3.2 | 0.00 | 0.00 | 0.00 | 64 | 1017.9 |
| 20260901214236 | 32 | 44 | 0.0 | 3.2 | 0.00 | 0.00 | 0.00 | 60 | 1017.9 |
| 20260901213735 | 32 | 62 | 0.0 | 3.2 | 0.00 | 0.00 | 0.00 | 62 | 1017.9 |
| 20260901213235 | 32 | 255 | 0.0 | 3.2 | 0.00 | 0.00 | 0.00 | 65 | 1018.3 |
| 20260901212735 | 32 | 98 | 0.0 | 4.8 | 0.00 | 0.00 | 0.00 | 62 | 1017.9 |
| 20260901212236 | 32 | 0.0 | 6.4 | 0.00 | 0.00 | 0.00 | 60 | 1017.9 | |
| 20260901211713 | 33 | 116 | 0.0 | 6.4 | 0.00 | 0.00 | 0.00 | 57 | 1017.9 |
| 20260901211212 | 34 | 323 | 0.0 | 6.4 | 0.00 | 0.00 | 0.00 | 54 | 1017.9 |
| 20260901210712 | 34 | 69 | 4.8 | 6.4 | 0.00 | 0.00 | 0.00 | 54 | 1018.3 |
| 20260901210213 | 34 | 55 | 3.2 | 6.4 | 0.00 | 0.00 | 0.00 | 55 | 1018.3 |
| 20260901205712 | 34 | 46 | 0.0 | 4.8 | 0.00 | 0.00 | 0.00 | 50 | 1018.3 |
| 20260901205213 | 33 | 155 | 1.6 | 11.3 | 0.00 | 0.00 | 0.00 | 51 | 1018.3 |
| 20260901204712 | 33 | 27 | 0.0 | 11.3 | 0.00 | 0.00 | 0.00 | 51 | 1018.3 |
| 20260901204213 | 33 | 134 | 4.8 | 8.0 | 0.00 | 0.00 | 0.00 | 52 | 1018.3 |
| 20260901203714 | 33 | 140 | 3.2 | 8.0 | 0.00 | 0.00 | 0.00 | 51 | 1018.3 |
| 20260901203212 | 33 | 77 | 1.6 | 8.0 | 0.00 | 0.00 | 0.00 | 53 | 1018.3 |
| 20260901202713 | 33 | 135 | 0.0 | 8.0 | 0.00 | 0.00 | 0.00 | 50 | 1018.6 |
| 20260901202213 | 33 | 102 | 3.2 | 6.4 | 0.00 | 0.00 | 0.00 | 54 | 1018.6 |
| 20260901201714 | 34 | 52 | 4.8 | 6.4 | 0.00 | 0.00 | 0.00 | 52 | 1018.3 |
| 20260901201214 | 34 | 358 | 3.2 | 8.0 | 0.00 | 0.00 | 0.00 | 56 | 1018.6 |
| 20260901200715 | 33 | 321 | 1.6 | 8.0 | 0.00 | 0.00 | 0.00 | 57 | 1018.3 |
| 20260901200214 | 33 | 38 | 3.2 | 6.4 | 0.00 | 0.00 | 0.00 | 56 | 1018.6 |
| 20260901195713 | 33 | 11 | 0.0 | 4.8 | 0.00 | 0.00 | 0.00 | 57 | 1018.3 |
| 20260901195212 | 32 | 32 | 1.6 | 4.8 | 0.00 | 0.00 | 0.00 | 58 | 1018.6 |
| 20260901194713 | 32 | 343 | 0.0 | 4.8 | 0.00 | 0.00 | 0.00 | 61 | 1018.6 |
| 20260901194213 | 32 | 336 | 0.0 | 8.0 | 0.00 | 0.00 | 0.00 | 58 | 1019.0 |
| 20260901193714 | 33 | 259 | 1.6 | 8.0 | 0.00 | 0.00 | 0.00 | 55 | 1019.0 |
| 20260901193213 | 34 | 281 | 4.8 | 6.4 | 0.00 | 0.00 | 0.00 | 52 | 1018.6 |
| 20260901192714 | 33 | 204 | 0.0 | 4.8 | 0.00 | 0.00 | 0.00 | 52 | 1018.6 |
| 20260901192213 | 33 | 54 | 3.2 | 6.4 | 0.00 | 0.00 | 0.00 | 55 | 1019.0 |
| 20260901191714 | 32 | 123 | 4.8 | 8.0 | 0.00 | 0.00 | 0.00 | 52 | 1019.0 |
| 20260901191214 | 33 | 335 | 3.2 | 8.0 | 0.00 | 0.00 | 0.00 | 52 | 1019.0 |
| 20260901190713 | 33 | 340 | 3.2 | 6.4 | 0.00 | 0.00 | 0.00 | 51 | 1019.3 |
| 20260901190213 | 33 | 292 | 4.8 | 8.0 | 0.00 | 0.00 | 0.00 | 53 | 1019.0 |
| 20260901185712 | 33 | 101 | 3.2 | 9.7 | 0.00 | 0.00 | 0.00 | 52 | 1019.3 |
| 20260901185212 | 33 | 29 | 4.8 | 9.7 | 0.00 | 0.00 | 0.00 | 54 | 1019.3 |
| 20260901184712 | 33 | 27 | 4.8 | 8.0 | 0.00 | 0.00 | 0.00 | 51 | 1019.3 |
| 20260901184213 | 33 | 97 | 8.0 | 8.0 | 0.00 | 0.00 | 0.00 | 54 | 1019.3 |
| 20260901183713 | 33 | 345 | 0.0 | 6.4 | 0.00 | 0.00 | 0.00 | 54 | 1019.3 |
| 20260901183212 | 33 | 287 | 3.2 | 6.4 | 0.00 | 0.00 | 0.00 | 52 | 1019.3 |
| 20260901182712 | 33 | 346 | 3.2 | 8.0 | 0.00 | 0.00 | 0.00 | 53 | 1019.7 |
| 20260901182213 | 33 | 343 | 8.0 | 8.0 | 0.00 | 0.00 | 0.00 | 56 | 1019.7 |
| 20260901181712 | 33 | 210 | 1.6 | 8.0 | 0.00 | 0.00 | 0.00 | 53 | 1019.7 |
| 20260901181213 | 33 | 3.2 | 8.0 | 0.00 | 0.00 | 0.00 | 58 | 1020.0 | |
| 20260901180712 | 33 | 32 | 4.8 | 8.0 | 0.00 | 0.00 | 0.00 | 55 | 1019.7 |
| 20260901180213 | 32 | 156 | 0.0 | 4.8 | 0.00 | 0.00 | 0.00 | 56 | 1020.0 |
| 20260901175712 | 32 | 93 | 3.2 | 4.8 | 0.00 | 0.00 | 0.00 | 57 | 1020.0 |
| 20260901175212 | 33 | 17 | 0.0 | 6.4 | 0.00 | 0.00 | 0.00 | 55 | 1020.0 |
| 20260901174712 | 33 | 261 | 3.2 | 6.4 | 0.00 | 0.00 | 0.00 | 54 | 1020.0 |
| 20260901174212 | 33 | 227 | 3.2 | 9.7 | 0.00 | 0.00 | 0.00 | 54 | 1020.0 |
| 20260901173712 | 33 | 330 | 0.0 | 9.7 | 0.00 | 0.00 | 0.00 | 56 | 1020.0 |
| 20260901173213 | 33 | 248 | 4.8 | 6.4 | 0.00 | 0.00 | 0.00 | 54 | 1020.0 |
| 20260901172712 | 33 | 195 | 1.6 | 6.4 | 0.00 | 0.00 | 0.00 | 56 | 1020.0 |
| 20260901172213 | 33 | 160 | 0.0 | 6.4 | 0.00 | 0.00 | 0.00 | 54 | 1020.4 |
| 20260901171713 | 32 | 205 | 0.0 | 6.4 | 0.00 | 0.00 | 0.00 | 56 | 1020.4 |
| 20260901171213 | 32 | 347 | 4.8 | 6.4 | 0.00 | 0.00 | 0.00 | 59 | 1020.7 |
| 20260901170713 | 32 | 358 | 0.0 | 4.8 | 0.00 | 0.00 | 0.00 | 58 | 1020.7 |
| 20260901170212 | 32 | 245 | 3.2 | 4.8 | 0.00 | 0.00 | 0.00 | 60 | 1020.7 |
| 20260901165712 | 32 | 315 | 1.6 | 6.4 | 0.00 | 0.00 | 0.00 | 57 | 1020.7 |
| 20260901165212 | 32 | 146 | 3.2 | 6.4 | 0.00 | 0.00 | 0.00 | 56 | 1020.7 |
| 20260901164713 | 33 | 272 | 1.6 | 4.8 | 0.00 | 0.00 | 0.00 | 58 | 1020.7 |
| 20260901164212 | 32 | 332 | 3.2 | 4.8 | 0.00 | 0.00 | 0.00 | 58 | 1020.7 |
| 20260901163712 | 32 | 208 | 1.6 | 4.8 | 0.00 | 0.00 | 0.00 | 63 | 1021.1 |
| 20260901163212 | 31 | 67 | 3.2 | 4.8 | 0.00 | 0.00 | 0.00 | 64 | 1020.7 |
| 20260901162712 | 31 | 269 | 0.0 | 6.4 | 0.00 | 0.00 | 0.00 | 62 | 1020.7 |
| 20260901162212 | 32 | 275 | 1.6 | 6.4 | 0.00 | 0.00 | 0.00 | 59 | 1021.1 |
| 20260901161715 | 33 | 175 | 0.0 | 6.4 | 0.00 | 0.00 | 0.00 | 57 | 1020.7 |
| 20260901161213 | 32 | 121 | 1.6 | 6.4 | 0.00 | 0.00 | 0.00 | 57 | 1021.1 |
| 20260901160717 | 32 | 269 | 0.0 | 6.4 | 0.00 | 0.00 | 0.00 | 58 | 1021.1 |
| 20260901160213 | 32 | 167 | 3.2 | 6.4 | 0.00 | 0.00 | 0.00 | 59 | 1021.1 |
| 20260901155712 | 32 | 121 | 0.0 | 8.0 | 0.00 | 0.00 | 0.00 | 63 | 1020.7 |
| 20260901155212 | 32 | 161 | 1.6 | 8.0 | 0.00 | 0.00 | 0.00 | 60 | 1021.4 |
| 20260901154713 | 32 | 285 | 8.0 | 9.7 | 0.00 | 0.00 | 0.00 | 59 | 1021.1 |
| 20260901154212 | 32 | 67 | 3.2 | 9.7 | 0.00 | 0.00 | 0.00 | 60 | 1021.4 |
| 20260901153712 | 32 | 220 | 0.0 | 8.0 | 0.00 | 0.00 | 0.00 | 61 | 1021.1 |
| 20260901153213 | 32 | 215 | 3.2 | 8.0 | 0.00 | 0.00 | 0.00 | 60 | 1021.1 |
| 20260901152713 | 31 | 211 | 3.2 | 8.0 | 0.00 | 0.00 | 0.00 | 61 | 1021.4 |
| 20260901152213 | 31 | 233 | 1.6 | 8.0 | 0.00 | 0.00 | 0.00 | 60 | 1021.1 |
| 20260901151712 | 32 | 238 | 4.8 | 8.0 | 0.00 | 0.00 | 0.00 | 59 | 1021.1 |
| 20260901151213 | 32 | 194 | 1.6 | 8.0 | 0.00 | 0.00 | 0.00 | 65 | 1021.1 |
| 20260901150713 | 32 | 214 | 0.0 | 8.0 | 0.00 | 0.00 | 0.00 | 63 | 1021.1 |
| 20260901150212 | 31 | 204 | 3.2 | 6.4 | 0.00 | 0.00 | 0.00 | 61 | 1021.1 |
| 20260901145712 | 31 | 161 | 3.2 | 8.0 | 0.00 | 0.00 | 0.00 | 62 | 1021.1 |
| 20260901145211 | 31 | 145 | 4.8 | 8.0 | 0.00 | 0.00 | 0.00 | 64 | 1021.4 |
| 20260901144712 | 32 | 224 | 0.0 | 4.8 | 0.00 | 0.00 | 0.00 | 64 | 1021.1 |
| 20260901144212 | 31 | 166 | 0.0 | 4.8 | 0.00 | 0.00 | 0.00 | 65 | 1021.1 |
| 20260901143712 | 31 | 137 | 0.0 | 4.8 | 0.00 | 0.00 | 0.00 | 68 | 1021.4 |
| 20260901143212 | 30 | 195 | 1.6 | 4.8 | 0.00 | 0.00 | 0.00 | 67 | 1021.1 |
| 20260901142712 | 31 | 189 | 0.0 | 3.2 | 0.00 | 0.00 | 0.00 | 69 | 1021.4 |
| 20260901142213 | 31 | 284 | 0.0 | 3.2 | 0.00 | 0.00 | 0.00 | 65 | 1021.4 |
| 20260901141712 | 30 | 117 | 0.0 | 4.8 | 0.00 | 0.00 | 0.00 | 71 | 1021.4 |
| 20260901141214 | 30 | 223 | 1.6 | 4.8 | 0.00 | 0.00 | 0.00 | 68 | 1021.4 |
| 20260901140713 | 30 | 163 | 1.6 | 4.8 | 0.00 | 0.00 | 0.00 | 70 | 1021.4 |
| 20260901140212 | 29 | 189 | 1.6 | 6.4 | 0.00 | 0.00 | 0.00 | 71 | 1021.1 |
| 20260901135712 | 29 | 235 | 4.8 | 6.4 | 0.00 | 0.00 | 0.00 | 70 | 1021.8 |
| 20260901135213 | 30 | 259 | 3.2 | 3.2 | 0.00 | 0.00 | 0.00 | 69 | 1021.4 |
| 20260901134713 | 29 | 129 | 0.0 | 4.8 | 0.00 | 0.00 | 0.00 | 72 | 1021.4 |
| 20260901134212 | 30 | 193 | 3.2 | 4.8 | 0.00 | 0.00 | 0.00 | 69 | 1021.4 |
| 20260901133712 | 30 | 127 | 3.2 | 4.8 | 0.00 | 0.00 | 0.00 | 70 | 1021.4 |
| 20260901133213 | 29 | 127 | 3.2 | 6.4 | 0.00 | 0.00 | 0.00 | 72 | 1021.4 |
| 20260901132712 | 28 | 130 | 1.6 | 6.4 | 0.00 | 0.00 | 0.00 | 74 | 1021.4 |
| 20260901132212 | 28 | 134 | 0.0 | 8.0 | 0.00 | 0.00 | 0.00 | 75 | 1021.4 |
| 20260901131713 | 28 | 150 | 4.8 | 8.0 | 0.00 | 0.00 | 0.00 | 76 | 1021.4 |